Zurück zum Katalog

COSMOS 2251 DEB

LostLEO
NORAD 37963·DEBRIS·🇷🇺 Russia

Gestartet Jun 16, 1993 von Plesetsk Cosmodrome

Loading…

Nächste Überflüge (nächste 24 Stunden)

TLE

VeraltetSource: Space-Track

Epoche: Apr 26, 2012, 12:58 UTC

1 37963U 93036BPN 12117.54070801  .00001501  00000-0  87977-3 0  9994
2 37963  74.0630 148.5575 0162942 322.7879 194.0245 14.02668937105431

Verfolge COSMOS 2251 DEB in Echtzeit mit AllMySat

Download on the App Store